Location: Burgerwiesen
(48.6500°N, 15.6167°E)
Time: 07:48:36
(UTC+00:00)

Cosmos 1814 Rocket - Pass Details

Date: 09 April 2020
Orbit: 745 x 787 km, 74.1° (Epoch: 02 June)

Event Time Altitude Azimuth Distance (km) Brightness Sun altitude
Rises 19:57:12 0° 339° (NNW) 3,288 8.3 -20.8°
Reaches altitude 10° 19:59:40 10° 344° (NNW) 2,358 7.3 -21.1°
Maximum altitude 20:04:56 55° 62° (ENE) 947 4.3 -21.7°
Enters shadow 20:06:02 46° 104° (ESE) 1,049 4.3 -21.9°
